Weather in Kylayy

Russia / Sakha (Yakutia) Republic     63°13′31″N   132°07′54″E
temp.,
°C
wind,
m/s
gust,
m/s
humid.,
%
clouds,
%
prec.,
mm/h
press.,
hPa
HPBL,
m
20 april, tue
tue2000:00−8w3792100 0.1 1012242
03:00−9w3794100 0.2 1011203
06:00−9w3795100 0.5 1011212
09:00−7w4690100 0.6 1010310
12:00−5w4791100 0.6 1010420
15:00−4w4787100 0.8 1010597
18:00−6w4888100 0.2 1011479
21:00−8w3892100 0.3 1013355
21 april, wed
wed2100:00−17wsw2310074 0.0 101431
03:00−18wsw2710099 0.0 1015109
06:00−16wsw2598100 0.0 1017139
09:00−10w2489100 0.1 1018435
12:00−5w2378100 0.1 1018860
15:00−3w2371100 0.1 10191055
18:00−3n1182100 0.1 1020298
21:00−9nne119889 0.3 102213
22 april, thu
thu2200:00−13ene239989 0.1 102351
03:00−17e12100100 0.1 102427
06:00−13ene2598100 0.0 1024118
09:00−6ene2390100 0.1 1023378
12:00−3ne1180100 0.1 1021821
15:00−2nnw1270100 0.1 1020987
18:00−3wnw2581100 0.0 1020345
21:00−5wnw4992100 0.1 1021441
23 april, fri
fri2300:00−9w41092100 0.0 1021358
03:00−11w4118850 0.0 1022407
06:00−12w3119244 0.0 1022510
09:00−7w478286 0.0 1021646
12:00−3w2479100 0.1 10201064
15:00−2ene1292100 0.8 1018433
18:00−4ene368999 0.9 1018345
21:00−11ene119762 0.9 101811
24 april, sat
sat2400:00−18nne119954 0.0 10199
03:00−21w1110058 0.0 10209
06:00−16wnw139534 0.0 102076
09:00−7wnw22775 0.0 1019296
12:00−2nw237116 0.0 1019948
15:00−1nnw345959 0.1 10181553
18:00−2nnw24753 0.1 1018118
21:00−13wnw11966 0.1 10189